Location: München
(48.1351°N, 11.5820°E)
Time: 17:05:03
(UTC+01:00)

ISS - Pass Details

Date: 02 February 2020
Orbit: 415 x 422 km, 51.6° (Epoch: 26 February)

Event Time Altitude Azimuth Distance (km) Brightness Sun altitude
Rises 17:40:57 0° 284° (WNW) 2,380 1.1 -5.0°
Reaches altitude 10° 17:43:07 10° 290° (WNW) 1,513 -0.1 -5.3°
Maximum altitude 17:46:24 45° 5° (N) 584 -3.2 -5.9°
Drops below altitude 10° 17:49:41 10° 80° (E) 1,509 -1.6 -6.4°
Enters shadow 17:50:04 - 82° (E) 1,659 -1.4 -6.4°
